Location: Del Amo
(33.8464°N, 118.2104°W)
Time: 08:04:09
(UTC+00:00)

Vanguard 1 Rocket - Pass Details

Date: 17 September 2024
Orbit: 650 x 4218 km, 34.3° (Epoch: 09 October)

Event Time Altitude Azimuth Distance (km) Brightness Sun altitude
Rises 12:27:21 0° 262° (W) 5,545 - -15.3°
Reaches altitude 10° 12:30:16 10° 263° (W) 4,899 - -14.7°
Exits shadow 12:32:01 17° 263° (W) 4,546 10.3 -14.4°
Maximum altitude 12:46:15 89° 352° (N) 3,484 10.3 -11.5°
Drops below altitude 10° 13:12:39 10° 88° (E) 7,416 13.9 -6.1°
Sets 13:18:24 0° 89° (E) 8,361 15.1 -4.9°
